Current Weather Conditions: station 62114

sailwx.info

See reports from other nearby stations

no recent reports received from weather station ID 62114

Tides Pressure Air temp Water temp Dewpoint Dewpoint depression Visibility Wind speed Wind direction Waves Ship positions
date/time (UTC)wind fromknots sea level pressurealtimeterstation pressurevisibilityair tempwater tempwave heightnotes
2016-May-03 14:00 250 19 8.1
2016-May-03 13:00 240 23 8.2
2016-May-03 12:00 230 19 7.8
2016-May-03 11:00 230 20 7.4
2016-May-03 10:00 240 22 7.2
2016-May-03 09:00 240 22 7.0
2016-May-03 08:00 240 25 6.8
2016-May-03 07:00 240 20 6.7
2016-May-03 06:00 250 19 6.6
2016-May-03 05:00 250 19 6.7
2016-May-03 04:00 250 18 6.7
2016-May-03 03:00 250 18 6.9
2016-May-03 02:00 250 16 7.1
2016-May-03 01:00 230 15 7.4
2016-May-03 00:00 260 13 7.5
2016-May-02 23:00 240 13 7.9
2016-May-02 22:00 230 12 8.0
2016-May-02 21:00 240 14 8.5
2016-May-02 20:00 220 13 8.1
2016-May-02 19:00 210 8 8.3
2016-May-02 18:00 250 7 8.3
2016-May-02 17:00 270 12 8.2
2016-May-02 16:00 240 16 8.5
2016-May-02 15:00 250 9 8.5
2016-May-02 14:00 220 15 8.5
2016-May-02 13:00 210 14 8.3
2016-May-02 12:00 210 17 8.1
2016-May-02 11:00 230 15 8.2
2016-May-02 10:00 200 27 8.7
2016-May-02 09:00 200 32 8.9
2016-May-02 08:00 190 36 9.1
2016-May-02 07:00 180 32 9.0
2016-May-02 06:00 190 32 8.9
2016-May-02 05:00 190 30 8.8
2016-May-02 04:00 190 31 8.8
2016-May-02 03:00 190 32 8.8
2016-May-02 02:00 190 32 8.7
2016-May-02 01:00 190 30 8.8
2016-May-02 00:00 190 30 8.5
2016-May-01 23:00 190 27 8.2
2016-May-01 22:00 190 25 8.2
2016-May-01 21:00 200 26 8.4
2016-May-01 20:00 190 20 8.2
2016-May-01 19:00 190 18 7.9
2016-May-01 18:00 200 15 7.7
2016-May-01 17:00 200 18 7.7
2016-May-01 16:00 210 18 7.7